Time,TemperatureF,DewpointF,PressureIn,WindDirection,WindDirectionDegrees,WindSpeedMPH,WindSpeedGustMPH,Humidity,HourlyPrecipIn,Conditions,Clouds,dailyrainin,SoftwareType,DateUTC
2013-12-23 00:01:00,9.7,4.0,30.22,NE,48,1.0,1.0,77,0.00,,SCT,0.00,VWS V14.01,2013-12-23 07:01:00,
2013-12-23 00:06:00,9.4,3.9,30.23,NE,48,0.0,1.0,78,0.00,,SCT,0.00,VWS V14.01,2013-12-23 07:06:00,
2013-12-23 00:11:00,9.4,4.2,30.22,NE,48,0.0,1.0,79,0.00,,SCT,0.00,VWS V14.01,2013-12-23 07:11:00,
2013-12-23 00:16:00,9.4,4.2,30.22,NE,48,0.0,1.0,79,0.00,,SCT,0.00,VWS V14.01,2013-12-23 07:16:00,
2013-12-23 00:21:00,9.4,4.5,30.22,NE,48,0.0,1.0,80,0.00,,SCT,0.00,VWS V14.01,2013-12-23 07:21:00,
2013-12-23 00:26:00,9.8,5.2,30.22,NE,48,0.0,1.0,81,0.00,,SCT,0.00,VWS V14.01,2013-12-23 07:26:00,
2013-12-23 00:31:00,10.1,5.4,30.23,NE,48,0.0,0.0,81,0.00,,SCT,0.00,VWS V14.01,2013-12-23 07:31:00,
2013-12-23 00:36:00,10.4,5.7,30.22,NE,48,0.0,0.0,81,0.00,,SCT,0.00,VWS V14.01,2013-12-23 07:36:00,
2013-12-23 00:41:00,10.8,6.1,30.23,NE,48,0.0,0.0,81,0.00,,SCT,0.00,VWS V14.01,2013-12-23 07:41:00,
2013-12-23 00:46:00,10.9,6.2,30.23,NE,48,0.0,0.0,81,0.00,,SCT,0.00,VWS V14.01,2013-12-23 07:46:00,
2013-12-23 00:51:00,10.6,4.2,30.23,SW,219,0.0,4.0,75,0.00,,SCT,0.00,VWS V14.01,2013-12-23 07:51:00,
2013-12-23 00:56:00,9.8,3.8,30.23,SW,214,0.0,4.0,76,0.00,,SCT,0.00,VWS V14.01,2013-12-23 07:56:00,
2013-12-23 01:01:00,9.4,4.2,30.23,SW,214,0.0,0.0,79,0.00,,SCT,0.00,VWS V14.01,2013-12-23 08:01:00,
2013-12-23 01:06:00,9.2,4.0,30.23,SW,214,0.0,0.0,79,0.00,,SCT,0.00,VWS V14.01,2013-12-23 08:06:00,
2013-12-23 01:11:00,9.3,4.7,30.23,NE,36,0.0,2.0,81,0.00,,SCT,0.00,VWS V14.01,2013-12-23 08:11:00,
2013-12-23 01:16:00,8.5,3.6,30.24,South,188,0.0,4.0,80,0.00,,SCT,0.00,VWS V14.01,2013-12-23 08:16:00,
2013-12-23 01:21:00,9.6,4.7,30.25,WSW,242,0.0,5.0,80,0.00,,SCT,0.00,VWS V14.01,2013-12-23 08:21:00,
2013-12-23 01:26:00,9.3,4.1,30.25,ENE,69,0.0,5.0,79,0.00,,SCT,0.00,VWS V14.01,2013-12-23 08:26:00,
2013-12-23 01:31:00,9.0,4.1,30.26,ENE,69,0.0,0.0,80,0.00,,SCT,0.00,VWS V14.01,2013-12-23 08:31:00,
2013-12-23 01:36:00,8.9,4.0,30.26,ENE,69,0.0,0.0,80,0.00,,SCT,0.00,VWS V14.01,2013-12-23 08:36:00,
2013-12-23 01:41:00,8.9,4.3,30.26,ENE,74,0.0,0.0,81,0.00,,SCT,0.00,VWS V14.01,2013-12-23 08:41:00,
2013-12-23 01:46:00,8.9,4.3,30.26,ENE,74,0.0,0.0,81,0.00,,SCT,0.00,VWS V14.01,2013-12-23 08:46:00,
2013-12-23 01:51:00,8.8,4.2,30.27,ENE,74,0.0,0.0,81,0.00,,SCT,0.00,VWS V14.01,2013-12-23 08:51:00,
2013-12-23 01:56:00,8.7,3.8,30.27,ENE,74,0.0,0.0,80,0.00,,SCT,0.00,VWS V14.01,2013-12-23 08:56:00,
2013-12-23 02:01:00,8.4,3.5,30.27,ENE,63,0.0,0.0,80,0.00,,SCT,0.00,VWS V14.01,2013-12-23 09:01:00,
2013-12-23 02:06:00,8.1,3.5,30.27,ENE,74,1.0,2.0,81,0.00,,SCT,0.00,VWS V14.01,2013-12-23 09:06:00,
2013-12-23 02:11:00,8.0,3.4,30.27,NE,55,0.0,2.0,81,0.00,,SCT,0.00,VWS V14.01,2013-12-23 09:11:00,
2013-12-23 02:16:00,8.1,4.0,30.28,ENE,59,0.0,2.0,83,0.00,,SCT,0.00,VWS V14.01,2013-12-23 09:16:00,
2013-12-23 02:21:00,8.3,4.2,30.27,ENE,59,0.0,2.0,83,0.00,,SCT,0.00,VWS V14.01,2013-12-23 09:21:00,
2013-12-23 02:26:00,8.5,4.4,30.28,ENE,59,0.0,2.0,83,0.00,,SCT,0.00,VWS V14.01,2013-12-23 09:26:00,
2013-12-23 02:31:00,8.8,4.7,30.28,NE,40,0.0,0.0,83,0.00,,SCT,0.00,VWS V14.01,2013-12-23 09:31:00,
2013-12-23 02:36:00,9.0,4.9,30.28,NE,40,0.0,0.0,83,0.00,,SCT,0.00,VWS V14.01,2013-12-23 09:36:00,
2013-12-23 02:41:00,9.1,5.0,30.28,NE,40,0.0,0.0,83,0.00,,SCT,0.00,VWS V14.01,2013-12-23 09:41:00,
2013-12-23 02:46:00,9.1,4.7,30.28,NE,40,0.0,0.0,82,0.00,,SCT,0.00,VWS V14.01,2013-12-23 09:46:00,
2013-12-23 02:51:00,9.1,5.0,30.29,NE,40,0.0,0.0,83,0.00,,SCT,0.00,VWS V14.01,2013-12-23 09:51:00,
2013-12-23 02:56:00,9.0,4.9,30.29,NE,40,0.0,0.0,83,0.00,,SCT,0.00,VWS V14.01,2013-12-23 09:56:00,
2013-12-23 03:01:00,9.1,5.0,30.29,NE,40,0.0,0.0,83,0.00,,SCT,0.00,VWS V14.01,2013-12-23 10:01:00,
2013-12-23 03:06:00,9.1,5.0,30.30,NE,40,0.0,0.0,83,0.00,,SCT,0.00,VWS V14.01,2013-12-23 10:06:00,
2013-12-23 03:11:00,9.1,5.0,30.30,NE,40,0.0,0.0,83,0.00,,SCT,0.00,VWS V14.01,2013-12-23 10:11:00,
2013-12-23 03:16:00,9.2,5.1,30.30,NE,40,0.0,0.0,83,0.00,,SCT,0.00,VWS V14.01,2013-12-23 10:16:00,
2013-12-23 03:21:00,9.2,5.1,30.30,NE,40,0.0,0.0,83,0.00,,SCT,0.00,VWS V14.01,2013-12-23 10:21:00,
2013-12-23 03:26:00,9.2,5.1,30.30,NE,40,0.0,0.0,83,0.00,,SCT,0.00,VWS V14.01,2013-12-23 10:26:00,
2013-12-23 03:31:00,9.2,5.1,30.31,NE,40,0.0,0.0,83,0.00,,SCT,0.00,VWS V14.01,2013-12-23 10:31:00,
2013-12-23 03:36:00,9.2,5.1,30.31,NE,40,0.0,0.0,83,0.00,,SCT,0.00,VWS V14.01,2013-12-23 10:36:00,
2013-12-23 03:41:00,9.2,5.1,30.31,NE,40,0.0,0.0,83,0.00,,SCT,0.00,VWS V14.01,2013-12-23 10:41:00,
2013-12-23 03:46:00,9.2,5.4,30.32,NE,36,0.0,0.0,84,0.00,,SCT,0.00,VWS V14.01,2013-12-23 10:46:00,
2013-12-23 03:51:00,9.6,5.5,30.31,ENE,64,0.0,2.0,83,0.00,,SCT,0.00,VWS V14.01,2013-12-23 10:51:00,
2013-12-23 03:56:00,9.8,5.4,30.31,ENE,64,0.0,2.0,82,0.00,,SCT,0.00,VWS V14.01,2013-12-23 10:56:00,
2013-12-23 04:01:00,9.8,5.4,30.31,ENE,64,0.0,0.0,82,0.00,,SCT,0.00,VWS V14.01,2013-12-23 11:01:00,
2013-12-23 04:06:00,9.7,5.1,30.30,ENE,64,0.0,0.0,81,0.00,,SCT,0.00,VWS V14.01,2013-12-23 11:06:00,
2013-12-23 04:11:00,9.5,4.9,30.31,NNE,28,0.0,1.0,81,0.00,,SCT,0.00,VWS V14.01,2013-12-23 11:11:00,
2013-12-23 04:16:00,9.4,4.8,30.31,NNE,26,0.0,2.0,81,0.00,,SCT,0.00,VWS V14.01,2013-12-23 11:16:00,
2013-12-23 04:21:00,9.4,4.8,30.31,NNE,26,0.0,2.0,81,0.00,,SCT,0.00,VWS V14.01,2013-12-23 11:21:00,
2013-12-23 04:26:00,9.4,4.5,30.31,NNE,26,0.0,2.0,80,0.00,,SCT,0.00,VWS V14.01,2013-12-23 11:26:00,
2013-12-23 04:31:00,9.0,4.1,30.31,NNE,26,0.0,0.0,80,0.00,,SCT,0.00,VWS V14.01,2013-12-23 11:31:00,
2013-12-23 04:36:00,8.8,4.2,30.31,NNE,26,0.0,0.0,81,0.00,,SCT,0.00,VWS V14.01,2013-12-23 11:36:00,
2013-12-23 04:41:00,8.4,4.1,30.31,NNE,26,0.0,0.0,82,0.00,,SCT,0.00,VWS V14.01,2013-12-23 11:41:00,
2013-12-23 04:45:00,8.1,3.8,30.31,NNE,26,0.0,0.0,82,0.00,,SCT,0.00,VWS V14.01,2013-12-23 11:45:00,
2013-12-23 04:50:00,7.7,3.1,30.31,NNE,26,0.0,0.0,81,0.00,,SCT,0.00,VWS V14.01,2013-12-23 11:50:00,
2013-12-23 04:55:00,7.4,3.3,30.30,NNE,26,0.0,0.0,83,0.00,,SCT,0.00,VWS V14.01,2013-12-23 11:55:00,
2013-12-23 05:00:00,7.4,3.6,30.31,NNE,26,0.0,0.0,84,0.00,,SCT,0.00,VWS V14.01,2013-12-23 12:00:00,
2013-12-23 05:05:00,7.2,3.4,30.31,NNE,26,0.0,2.0,84,0.00,,SCT,0.00,VWS V14.01,2013-12-23 12:05:00,
2013-12-23 05:10:00,7.1,3.3,30.31,NNE,26,0.0,2.0,84,0.00,,SCT,0.00,VWS V14.01,2013-12-23 12:10:00,
2013-12-23 05:15:00,7.1,3.3,30.31,NNE,26,0.0,2.0,84,0.00,,SCT,0.00,VWS V14.01,2013-12-23 12:15:00,
2013-12-23 05:20:00,7.6,3.8,30.32,NE,55,0.0,2.0,84,0.00,,SCT,0.00,VWS V14.01,2013-12-23 12:20:00,
2013-12-23 05:25:00,8.0,4.2,30.32,NE,55,0.0,2.0,84,0.00,,SCT,0.00,VWS V14.01,2013-12-23 12:25:00,
2013-12-23 05:30:00,8.2,3.8,30.32,NE,55,0.0,0.0,82,0.00,,SCT,0.00,VWS V14.01,2013-12-23 12:30:00,
2013-12-23 05:35:00,8.1,3.8,30.32,NE,55,0.0,1.0,82,0.00,,SCT,0.00,VWS V14.01,2013-12-23 12:35:00,
2013-12-23 05:40:00,8.1,3.8,30.32,NE,55,0.0,2.0,82,0.00,,SCT,0.00,VWS V14.01,2013-12-23 12:40:00,
2013-12-23 05:45:00,8.0,3.7,30.32,NE,55,0.0,2.0,82,0.00,,SCT,0.00,VWS V14.01,2013-12-23 12:45:00,
2013-12-23 05:50:00,7.9,3.6,30.33,NE,55,0.0,2.0,82,0.00,,SCT,0.00,VWS V14.01,2013-12-23 12:50:00,
2013-12-23 05:55:00,7.6,3.3,30.33,NE,55,0.0,2.0,82,0.00,,SCT,0.00,VWS V14.01,2013-12-23 12:55:00,
2013-12-23 06:00:00,7.5,3.2,30.34,NE,55,0.0,0.0,82,0.00,,SCT,0.00,VWS V14.01,2013-12-23 13:00:00,
2013-12-23 06:05:00,7.4,3.3,30.34,NE,55,0.0,0.0,83,0.00,,SCT,0.00,VWS V14.01,2013-12-23 13:05:00,
2013-12-23 06:10:00,7.5,3.7,30.34,NE,55,0.0,1.0,84,0.00,,SCT,0.00,VWS V14.01,2013-12-23 13:10:00,
2013-12-23 06:15:00,7.5,3.7,30.34,NE,55,0.0,1.0,84,0.00,,SCT,0.00,VWS V14.01,2013-12-23 13:15:00,
2013-12-23 06:20:00,7.8,4.0,30.34,NE,55,0.0,1.0,84,0.00,,SCT,0.00,VWS V14.01,2013-12-23 13:20:00,
2013-12-23 06:25:00,7.8,4.0,30.34,NE,55,0.0,1.0,84,0.00,,SCT,0.00,VWS V14.01,2013-12-23 13:25:00,
2013-12-23 06:30:00,7.8,4.0,30.34,NE,55,0.0,1.0,84,0.00,,SCT,0.00,VWS V14.01,2013-12-23 13:30:00,
2013-12-23 06:35:00,8.4,4.6,30.35,NE,55,0.0,0.0,84,0.00,,SCT,0.00,VWS V14.01,2013-12-23 13:35:00,
2013-12-23 06:40:00,8.5,4.7,30.35,NE,55,0.0,0.0,84,0.00,,SCT,0.00,VWS V14.01,2013-12-23 13:40:00,
2013-12-23 06:45:00,8.6,4.5,30.35,NE,55,0.0,0.0,83,0.00,,SCT,0.00,VWS V14.01,2013-12-23 13:45:00,
2013-12-23 06:50:00,8.6,4.8,30.35,NE,55,0.0,1.0,84,0.00,,SCT,0.00,VWS V14.01,2013-12-23 13:50:00,
2013-12-23 06:55:00,8.5,4.4,30.36,NE,55,0.0,1.0,83,0.00,,SCT,0.00,VWS V14.01,2013-12-23 13:55:00,
2013-12-23 07:00:00,8.5,4.7,30.35,NE,55,0.0,2.0,84,0.00,,SCT,0.00,VWS V14.01,2013-12-23 14:00:00,
2013-12-23 07:05:00,8.6,4.8,30.36,NE,55,0.0,0.0,84,0.00,,SCT,0.00,VWS V14.01,2013-12-23 14:05:00,
2013-12-23 07:10:00,8.6,5.0,30.36,NE,55,0.0,2.0,85,0.00,,SCT,0.00,VWS V14.01,2013-12-23 14:10:00,
2013-12-23 07:15:00,8.7,5.1,30.36,NE,55,0.0,2.0,85,0.00,,SCT,0.00,VWS V14.01,2013-12-23 14:15:00,
2013-12-23 07:20:00,8.9,5.3,30.36,NE,55,0.0,2.0,85,0.00,,SCT,0.00,VWS V14.01,2013-12-23 14:20:00,
2013-12-23 07:25:00,9.3,5.7,30.36,NE,55,0.0,2.0,85,0.00,,SCT,0.00,VWS V14.01,2013-12-23 14:25:00,
2013-12-23 07:30:00,9.4,5.6,30.37,NE,55,0.0,2.0,84,0.00,,SCT,0.00,VWS V14.01,2013-12-23 14:30:00,
2013-12-23 07:35:00,9.7,5.6,30.37,South,184,0.0,4.0,83,0.00,,SCT,0.00,VWS V14.01,2013-12-23 14:35:00,
2013-12-23 07:40:00,9.8,5.4,30.38,South,180,0.0,4.0,82,0.00,,SCT,0.00,VWS V14.01,2013-12-23 14:40:00,
2013-12-23 07:45:00,9.9,5.2,30.38,East,94,0.0,4.0,81,0.00,,SCT,0.00,VWS V14.01,2013-12-23 14:45:00,
2013-12-23 07:50:00,9.7,4.8,30.38,West,264,0.0,4.0,80,0.00,,SCT,0.00,VWS V14.01,2013-12-23 14:50:00,
2013-12-23 07:55:00,9.2,4.0,30.38,West,264,0.0,4.0,79,0.00,,SCT,0.00,VWS V14.01,2013-12-23 14:55:00,
2013-12-23 08:00:00,8.8,4.2,30.38,SSE,163,0.0,4.0,81,0.00,,SCT,0.00,VWS V14.01,2013-12-23 15:00:00,
2013-12-23 08:05:00,8.8,4.4,30.39,SSE,150,0.0,1.0,82,0.00,,SCT,0.00,VWS V14.01,2013-12-23 15:05:00,
2013-12-23 08:10:00,9.3,5.2,30.39,SSE,150,0.0,1.0,83,0.00,,SCT,0.00,VWS V14.01,2013-12-23 15:10:00,
2013-12-23 08:15:00,9.9,5.8,30.39,SSE,149,0.0,1.0,83,0.00,,SCT,0.00,VWS V14.01,2013-12-23 15:15:00,
2013-12-23 08:20:00,10.8,6.4,30.40,SSE,149,0.0,2.0,82,0.00,,SCT,0.00,VWS V14.01,2013-12-23 15:20:00,
2013-12-23 08:25:00,11.7,7.0,30.40,SE,146,0.0,3.0,81,0.00,,SCT,0.00,VWS V14.01,2013-12-23 15:25:00,
2013-12-23 08:30:00,12.8,7.8,30.40,SSW,195,1.0,3.0,80,0.00,,SCT,0.00,VWS V14.01,2013-12-23 15:30:00,
2013-12-23 08:35:00,13.1,7.3,30.40,South,178,0.0,3.0,77,0.00,,SCT,0.00,VWS V14.01,2013-12-23 15:35:00,
2013-12-23 08:40:00,13.5,7.4,30.40,SSE,151,0.0,3.0,76,0.00,,SCT,0.00,VWS V14.01,2013-12-23 15:40:00,
2013-12-23 08:45:00,14.1,7.9,30.40,SSE,151,0.0,3.0,76,0.00,,SCT,0.00,VWS V14.01,2013-12-23 15:45:00,
2013-12-23 08:50:00,14.6,8.4,30.40,SSE,150,0.0,3.0,76,0.00,,SCT,0.00,VWS V14.01,2013-12-23 15:50:00,
2013-12-23 08:55:00,15.4,8.3,30.41,SSW,202,0.0,3.0,73,0.00,,SCT,0.00,VWS V14.01,2013-12-23 15:55:00,
2013-12-23 09:00:00,15.9,8.8,30.41,South,190,0.0,3.0,73,0.00,,SCT,0.00,VWS V14.01,2013-12-23 16:00:00,
2013-12-23 09:05:00,16.3,8.9,30.41,SSW,195,1.0,3.0,72,0.00,,SCT,0.00,VWS V14.01,2013-12-23 16:05:00,
2013-12-23 09:10:00,16.4,8.7,30.41,SSW,209,0.0,3.0,71,0.00,,SCT,0.00,VWS V14.01,2013-12-23 16:10:00,
2013-12-23 09:15:00,16.6,9.2,30.41,SSE,161,0.0,3.0,72,0.00,,SCT,0.00,VWS V14.01,2013-12-23 16:15:00,
2013-12-23 09:20:00,16.9,8.8,30.41,SSE,149,0.0,4.0,70,0.00,,SCT,0.00,VWS V14.01,2013-12-23 16:20:00,
2013-12-23 09:25:00,17.3,8.9,30.41,South,170,0.0,4.0,69,0.00,,SCT,0.00,VWS V14.01,2013-12-23 16:25:00,
2013-12-23 09:30:00,17.1,8.4,30.41,South,170,0.0,4.0,68,0.00,,SCT,0.00,VWS V14.01,2013-12-23 16:30:00,
2013-12-23 09:35:00,17.0,7.9,30.41,South,170,0.0,0.0,67,0.00,,SCT,0.00,VWS V14.01,2013-12-23 16:35:00,
2013-12-23 09:40:00,17.2,8.8,30.42,South,170,0.0,0.0,69,0.00,,SCT,0.00,VWS V14.01,2013-12-23 16:40:00,
2013-12-23 09:45:00,17.3,8.2,30.42,South,179,3.0,3.0,67,0.00,,SCT,0.00,VWS V14.01,2013-12-23 16:45:00,
2013-12-23 09:50:00,17.3,8.2,30.42,South,182,0.0,4.0,67,0.00,,SCT,0.00,VWS V14.01,2013-12-23 16:50:00,
2013-12-23 09:55:00,17.2,8.1,30.42,South,182,4.0,5.0,67,0.00,,SCT,0.00,VWS V14.01,2013-12-23 16:55:00,
2013-12-23 10:00:00,16.3,7.6,30.43,South,182,3.0,9.0,68,0.00,,SCT,0.00,VWS V14.01,2013-12-23 17:00:00,
2013-12-23 10:05:00,15.7,7.3,30.42,SSE,167,1.0,8.0,69,0.00,,SCT,0.00,VWS V14.01,2013-12-23 17:05:00,
2013-12-23 10:10:00,16.0,7.6,30.42,South,180,2.0,8.0,69,0.00,,SCT,0.00,VWS V14.01,2013-12-23 17:10:00,
2013-12-23 10:15:00,16.2,7.8,30.42,South,172,0.0,8.0,69,0.00,,SCT,0.00,VWS V14.01,2013-12-23 17:15:00,
2013-12-23 10:20:00,16.5,8.1,30.42,South,186,1.0,8.0,69,0.00,,SCT,0.00,VWS V14.01,2013-12-23 17:20:00,
2013-12-23 10:25:00,16.6,7.9,30.43,South,182,2.0,8.0,68,0.00,,SCT,0.00,VWS V14.01,2013-12-23 17:25:00,
2013-12-23 10:30:00,16.6,8.2,30.38,South,188,4.0,6.0,69,0.00,,SCT,0.00,VWS V14.01,2013-12-23 17:30:00,
2013-12-23 10:35:00,16.7,8.0,30.38,South,188,2.0,5.0,68,0.00,,SCT,0.00,VWS V14.01,2013-12-23 17:35:00,
2013-12-23 10:40:00,17.1,8.7,30.38,SSW,212,3.0,5.0,69,0.00,,SCT,0.00,VWS V14.01,2013-12-23 17:40:00,
2013-12-23 10:45:00,17.5,9.1,30.38,SSW,196,6.0,8.0,69,0.00,,SCT,0.00,VWS V14.01,2013-12-23 17:45:00,
2013-12-23 10:50:00,17.5,9.1,30.38,SW,215,3.0,8.0,69,0.00,,SCT,0.00,VWS V14.01,2013-12-23 17:50:00,
2013-12-23 10:55:00,17.4,8.7,30.38,South,185,9.0,11.0,68,0.00,,SCT,0.00,VWS V14.01,2013-12-23 17:55:00,
2013-12-23 11:00:00,17.2,8.8,30.38,South,180,7.0,11.0,69,0.00,,SCT,0.00,VWS V14.01,2013-12-23 18:00:00,
2013-12-23 11:05:00,17.0,8.6,30.39,South,182,3.0,13.0,69,0.00,,SCT,0.00,VWS V14.01,2013-12-23 18:05:00,
2013-12-23 11:10:00,17.2,8.8,30.39,South,183,7.0,13.0,69,0.00,,SCT,0.00,VWS V14.01,2013-12-23 18:10:00,
2013-12-23 11:15:00,17.5,9.4,30.39,SSW,194,5.0,13.0,70,0.00,,SCT,0.00,VWS V14.01,2013-12-23 18:15:00,
2013-12-23 11:20:00,18.1,9.7,30.39,South,191,4.0,13.0,69,0.00,,SCT,0.00,VWS V14.01,2013-12-23 18:20:00,
2013-12-23 11:25:00,18.4,9.3,30.38,South,180,6.0,13.0,67,0.00,,SCT,0.00,VWS V14.01,2013-12-23 18:25:00,
2013-12-23 11:30:00,19.0,9.5,30.38,South,178,3.0,13.0,66,0.00,,SCT,0.00,VWS V14.01,2013-12-23 18:30:00,
2013-12-23 11:35:00,19.5,10.0,30.38,South,187,3.0,8.0,66,0.00,,SCT,0.00,VWS V14.01,2013-12-23 18:35:00,
2013-12-23 11:40:00,20.4,11.2,30.37,South,188,3.0,8.0,67,0.00,,SCT,0.00,VWS V14.01,2013-12-23 18:40:00,
2013-12-23 11:45:00,21.1,10.8,30.37,South,190,2.0,8.0,64,0.00,,SCT,0.00,VWS V14.01,2013-12-23 18:45:00,
2013-12-23 11:50:00,20.9,9.6,30.37,South,189,3.0,9.0,61,0.00,,FEW,0.00,VWS V14.01,2013-12-23 18:50:00,
2013-12-23 11:55:00,20.1,9.5,30.37,South,169,9.0,10.0,63,0.00,,FEW,0.00,VWS V14.01,2013-12-23 18:55:00,
2013-12-23 12:00:00,19.7,9.9,30.37,SSE,162,3.0,11.0,65,0.00,,FEW,0.00,VWS V14.01,2013-12-23 19:00:00,
2013-12-23 12:05:00,20.5,11.0,30.36,South,188,6.0,9.0,66,0.00,,FEW,0.00,VWS V14.01,2013-12-23 19:05:00,
2013-12-23 12:10:00,21.2,10.6,30.36,South,187,2.0,9.0,63,0.00,,FEW,0.00,VWS V14.01,2013-12-23 19:10:00,
2013-12-23 12:15:00,22.0,10.6,30.36,South,186,3.0,9.0,61,0.00,,FEW,0.00,VWS V14.01,2013-12-23 19:15:00,
2013-12-23 12:20:00,23.1,12.0,30.36,SSW,213,4.0,9.0,62,0.00,,FEW,0.00,VWS V14.01,2013-12-23 19:20:00,
2013-12-23 12:25:00,22.9,11.1,30.36,SW,236,3.0,9.0,60,0.00,,FEW,0.00,VWS V14.01,2013-12-23 19:25:00,
2013-12-23 12:30:00,22.3,10.9,30.36,WSW,239,2.0,9.0,61,0.00,,FEW,0.00,VWS V14.01,2013-12-23 19:30:00,
2013-12-23 12:35:00,21.6,9.9,30.36,WSW,243,3.0,8.0,60,0.00,,FEW,0.00,VWS V14.01,2013-12-23 19:35:00,
2013-12-23 12:40:00,21.3,10.3,30.36,South,180,2.0,8.0,62,0.00,,FEW,0.00,VWS V14.01,2013-12-23 19:40:00,
2013-12-23 12:45:00,21.3,9.6,30.36,South,180,2.0,8.0,60,0.00,,FEW,0.00,VWS V14.01,2013-12-23 19:45:00,
2013-12-23 12:50:00,21.3,9.6,30.36,South,180,2.0,8.0,60,0.00,,FEW,0.00,VWS V14.01,2013-12-23 19:50:00,
2013-12-23 12:55:00,21.3,9.6,30.36,South,180,2.0,8.0,60,0.00,,FEW,0.00,VWS V14.01,2013-12-23 19:55:00,
2013-12-23 13:00:00,21.3,9.6,30.35,South,180,2.0,8.0,60,0.00,,FEW,0.00,VWS V14.01,2013-12-23 20:00:00,
2013-12-23 13:05:00,21.3,9.6,30.35,South,180,2.0,3.0,60,0.00,,FEW,0.00,VWS V14.01,2013-12-23 20:05:00,
2013-12-23 13:10:00,21.8,10.1,30.34,South,190,5.0,8.0,60,0.00,,FEW,0.00,VWS V14.01,2013-12-23 20:10:00,
2013-12-23 13:15:00,22.2,10.4,30.34,SSW,212,5.0,8.0,60,0.00,,FEW,0.00,VWS V14.01,2013-12-23 20:15:00,
2013-12-23 13:20:00,22.2,10.8,30.34,SSW,205,3.0,8.0,61,0.00,,FEW,0.00,VWS V14.01,2013-12-23 20:20:00,
2013-12-23 13:25:00,21.9,10.9,30.34,SSW,213,4.0,8.0,62,0.00,,FEW,0.00,VWS V14.01,2013-12-23 20:25:00,
2013-12-23 13:30:00,22.0,10.2,30.34,South,188,3.0,8.0,60,0.00,,FEW,0.00,VWS V14.01,2013-12-23 20:30:00,
2013-12-23 13:35:00,22.1,11.1,30.34,SW,227,3.0,7.0,62,0.00,,FEW,0.00,VWS V14.01,2013-12-23 20:35:00,
2013-12-23 13:40:00,21.9,11.6,30.34,SSW,194,4.0,8.0,64,0.00,,FEW,0.00,VWS V14.01,2013-12-23 20:40:00,
2013-12-23 13:45:00,21.6,10.6,30.34,SSW,194,3.0,9.0,62,0.00,,FEW,0.00,VWS V14.01,2013-12-23 20:45:00,
2013-12-23 13:50:00,21.7,11.1,30.34,SSW,196,5.0,9.0,63,0.00,,FEW,0.00,VWS V14.01,2013-12-23 20:50:00,
2013-12-23 13:55:00,21.7,10.7,30.34,SSW,205,2.0,9.0,62,0.00,,FEW,0.00,VWS V14.01,2013-12-23 20:55:00,
2013-12-23 14:00:00,21.3,10.0,30.35,South,185,4.0,9.0,61,0.00,,FEW,0.00,VWS V14.01,2013-12-23 21:00:00,
2013-12-23 14:05:00,21.0,10.0,30.35,SSW,201,2.0,5.0,62,0.00,,FEW,0.00,VWS V14.01,2013-12-23 21:05:00,
2013-12-23 14:10:00,21.3,11.0,30.35,SSW,200,2.0,5.0,64,0.00,,FEW,0.00,VWS V14.01,2013-12-23 21:10:00,
2013-12-23 14:15:00,21.7,10.0,30.35,South,184,2.0,8.0,60,0.00,,FEW,0.00,VWS V14.01,2013-12-23 21:15:00,
2013-12-23 14:20:00,22.0,9.9,30.35,South,180,5.0,8.0,59,0.00,,FEW,0.00,VWS V14.01,2013-12-23 21:20:00,
2013-12-23 14:25:00,22.1,9.6,30.35,South,188,2.0,8.0,58,0.00,,FEW,0.00,VWS V14.01,2013-12-23 21:25:00,
2013-12-23 14:30:00,22.2,10.1,30.35,SW,224,2.0,8.0,59,0.00,,FEW,0.00,VWS V14.01,2013-12-23 21:30:00,
2013-12-23 14:35:00,22.2,10.8,30.35,South,184,4.0,8.0,61,0.00,,FEW,0.00,VWS V14.01,2013-12-23 21:35:00,
2013-12-23 14:40:00,21.9,10.5,30.36,SSW,205,2.0,10.0,61,0.00,,FEW,0.00,VWS V14.01,2013-12-23 21:40:00,
2013-12-23 14:45:00,21.4,9.7,30.36,South,185,6.0,10.0,60,0.00,,FEW,0.00,VWS V14.01,2013-12-23 21:45:00,
2013-12-23 14:49:00,21.0,8.9,30.36,South,188,4.0,10.0,59,0.00,,FEW,0.00,VWS V14.01,2013-12-23 21:49:00,
2013-12-23 14:54:00,20.8,10.2,30.36,WSW,242,3.0,10.0,63,0.00,,FEW,0.00,VWS V14.01,2013-12-23 21:54:00,
2013-12-23 14:59:00,20.9,9.9,30.36,SSW,198,2.0,10.0,62,0.00,,FEW,0.00,VWS V14.01,2013-12-23 21:59:00,
2013-12-23 15:04:00,21.1,10.1,30.36,SSW,200,3.0,6.0,62,0.00,,FEW,0.00,VWS V14.01,2013-12-23 22:04:00,
2013-12-23 15:09:00,21.1,9.8,30.36,SW,236,2.0,6.0,61,0.00,,FEW,0.00,VWS V14.01,2013-12-23 22:09:00,
2013-12-23 15:14:00,20.9,10.3,30.36,SW,236,2.0,6.0,63,0.00,,FEW,0.00,VWS V14.01,2013-12-23 22:14:00,
2013-12-23 15:19:00,20.7,9.4,30.37,SW,227,2.0,6.0,61,0.00,,FEW,0.00,VWS V14.01,2013-12-23 22:19:00,
2013-12-23 15:24:00,20.6,9.3,30.37,SW,227,3.0,6.0,61,0.00,,FEW,0.00,VWS V14.01,2013-12-23 22:24:00,
2013-12-23 15:29:00,20.5,8.8,30.37,SW,227,2.0,6.0,60,0.00,,FEW,0.00,VWS V14.01,2013-12-23 22:29:00,
2013-12-23 15:34:00,20.5,9.2,30.37,South,188,3.0,7.0,61,0.00,,FEW,0.00,VWS V14.01,2013-12-23 22:34:00,
2013-12-23 15:39:00,20.6,10.0,30.37,SSW,194,2.0,7.0,63,0.00,,FEW,0.00,VWS V14.01,2013-12-23 22:39:00,
2013-12-23 15:44:00,20.5,9.2,30.37,SSW,194,3.0,7.0,61,0.00,,FEW,0.00,VWS V14.01,2013-12-23 22:44:00,
2013-12-23 15:49:00,20.5,9.2,30.37,South,191,2.0,7.0,61,0.00,,FEW,0.00,VWS V14.01,2013-12-23 22:49:00,
2013-12-23 15:54:00,20.6,10.0,30.36,South,191,3.0,7.0,63,0.00,,FEW,0.00,VWS V14.01,2013-12-23 22:54:00,
2013-12-23 15:59:00,20.7,9.8,30.36,South,191,2.0,7.0,62,0.00,,FEW,0.00,VWS V14.01,2013-12-23 22:59:00,
2013-12-23 16:04:00,21.1,10.1,30.36,South,191,2.0,3.0,62,0.00,,FEW,0.00,VWS V14.01,2013-12-23 23:04:00,
2013-12-23 16:09:00,21.2,9.9,30.36,South,191,2.0,5.0,61,0.00,,FEW,0.00,VWS V14.01,2013-12-23 23:09:00,
2013-12-23 16:14:00,21.1,10.1,30.37,South,191,2.0,5.0,62,0.00,,FEW,0.00,VWS V14.01,2013-12-23 23:14:00,
2013-12-23 16:19:00,20.9,9.9,30.37,South,191,2.0,5.0,62,0.00,,FEW,0.00,VWS V14.01,2013-12-23 23:19:00,
2013-12-23 16:24:00,20.7,9.8,30.37,South,191,2.0,5.0,62,0.00,,FEW,0.00,VWS V14.01,2013-12-23 23:24:00,
2013-12-23 16:29:00,20.6,8.9,30.37,South,191,2.0,5.0,60,0.00,,FEW,0.00,VWS V14.01,2013-12-23 23:29:00,
2013-12-23 16:34:00,20.5,8.8,30.37,SSW,213,3.0,4.0,60,0.00,,FEW,0.00,VWS V14.01,2013-12-23 23:34:00,
2013-12-23 16:39:00,20.2,9.3,30.37,SW,217,2.0,5.0,62,0.00,,FEW,0.00,VWS V14.01,2013-12-23 23:39:00,
2013-12-23 16:44:00,20.0,9.1,30.37,SW,217,2.0,5.0,62,0.00,,FEW,0.00,VWS V14.01,2013-12-23 23:44:00,
2013-12-23 16:49:00,19.7,9.2,30.37,SW,217,2.0,5.0,63,0.00,,FEW,0.00,VWS V14.01,2013-12-23 23:49:00,
2013-12-23 16:54:00,19.3,8.8,30.38,SW,217,2.0,5.0,63,0.00,,FEW,0.00,VWS V14.01,2013-12-23 23:54:00,
2013-12-23 16:59:00,19.0,8.8,30.38,SW,217,2.0,5.0,64,0.00,,FEW,0.00,VWS V14.01,2013-12-23 23:59:00,
2013-12-23 17:04:00,18.7,8.6,30.37,SW,217,2.0,3.0,64,0.00,,FEW,0.00,VWS V14.01,2013-12-24 00:04:00,
2013-12-23 17:09:00,18.4,8.3,30.37,SW,217,2.0,3.0,64,0.00,,FEW,0.00,VWS V14.01,2013-12-24 00:09:00,
2013-12-23 17:14:00,18.2,8.4,30.37,SW,217,2.0,3.0,65,0.00,,FEW,0.00,VWS V14.01,2013-12-24 00:14:00,
2013-12-23 17:19:00,17.9,8.1,30.37,SW,217,2.0,3.0,65,0.00,,FEW,0.00,VWS V14.01,2013-12-24 00:19:00,
2013-12-23 17:24:00,17.6,8.2,30.36,SW,217,2.0,3.0,66,0.00,,FEW,0.00,VWS V14.01,2013-12-24 00:24:00,
2013-12-23 17:29:00,17.1,7.7,30.37,SW,217,2.0,3.0,66,0.00,,FEW,0.00,VWS V14.01,2013-12-24 00:29:00,
2013-12-23 17:34:00,16.7,7.7,30.37,SW,217,2.0,3.0,67,0.00,,FEW,0.00,VWS V14.01,2013-12-24 00:34:00,
2013-12-23 17:39:00,16.4,7.4,30.37,SW,217,2.0,3.0,67,0.00,,FEW,0.00,VWS V14.01,2013-12-24 00:39:00,
2013-12-23 17:44:00,16.2,7.2,30.38,WSW,239,2.0,3.0,67,0.00,,FEW,0.00,VWS V14.01,2013-12-24 00:44:00,
2013-12-23 17:49:00,16.3,7.3,30.38,NNW,340,2.0,5.0,67,0.00,,FEW,0.00,VWS V14.01,2013-12-24 00:49:00,
2013-12-23 17:54:00,16.4,7.0,30.38,NNW,340,2.0,5.0,66,0.00,,FEW,0.00,VWS V14.01,2013-12-24 00:54:00,
2013-12-23 17:59:00,16.4,7.0,30.38,NNW,340,2.0,5.0,66,0.00,,FEW,0.00,VWS V14.01,2013-12-24 00:59:00,
2013-12-23 18:04:00,16.2,6.8,30.38,NNW,340,2.0,4.0,66,0.00,,FEW,0.00,VWS V14.01,2013-12-24 01:04:00,
2013-12-23 18:09:00,16.3,6.9,30.38,NNW,342,2.0,4.0,66,0.00,,FEW,0.00,VWS V14.01,2013-12-24 01:09:00,
2013-12-23 18:14:00,16.2,6.8,30.39,NNW,342,2.0,4.0,66,0.00,,FEW,0.00,VWS V14.01,2013-12-24 01:14:00,
2013-12-23 18:19:00,16.1,7.1,30.39,NNW,342,2.0,4.0,67,0.00,,FEW,0.00,VWS V14.01,2013-12-24 01:19:00,
2013-12-23 18:24:00,15.8,6.8,30.39,NNW,342,2.0,4.0,67,0.00,,FEW,0.00,VWS V14.01,2013-12-24 01:24:00,
2013-12-23 18:29:00,15.4,6.7,30.39,NNW,342,2.0,4.0,68,0.00,,FEW,0.00,VWS V14.01,2013-12-24 01:29:00,
2013-12-23 18:34:00,15.1,6.5,30.39,NNW,342,2.0,3.0,68,0.00,,FEW,0.00,VWS V14.01,2013-12-24 01:34:00,
2013-12-23 18:39:00,15.0,6.4,30.39,NNW,343,2.0,5.0,68,0.00,,FEW,0.00,VWS V14.01,2013-12-24 01:39:00,
2013-12-23 18:44:00,15.1,6.5,30.39,NNW,344,2.0,5.0,68,0.00,,FEW,0.00,VWS V14.01,2013-12-24 01:44:00,
2013-12-23 18:49:00,15.3,6.7,30.39,NNW,344,2.0,5.0,68,0.00,,FEW,0.00,VWS V14.01,2013-12-24 01:49:00,
2013-12-23 18:54:00,15.4,6.7,30.39,NNW,347,2.0,5.0,68,0.00,,FEW,0.00,VWS V14.01,2013-12-24 01:54:00,
2013-12-23 18:59:00,15.5,6.8,30.40,North,355,2.0,5.0,68,0.00,,FEW,0.00,VWS V14.01,2013-12-24 01:59:00,
2013-12-23 19:04:00,15.3,6.7,30.40,North,355,2.0,3.0,68,0.00,,FEW,0.00,VWS V14.01,2013-12-24 02:04:00,
2013-12-23 19:09:00,15.0,6.7,30.40,North,355,2.0,3.0,69,0.00,,FEW,0.00,VWS V14.01,2013-12-24 02:09:00,
2013-12-23 19:14:00,15.0,6.7,30.40,North,355,2.0,3.0,69,0.00,,FEW,0.00,VWS V14.01,2013-12-24 02:14:00,
2013-12-23 19:19:00,14.8,6.5,30.41,North,355,2.0,3.0,69,0.00,,FEW,0.00,VWS V14.01,2013-12-24 02:19:00,
2013-12-23 19:24:00,14.4,6.4,30.41,North,355,2.0,5.0,70,0.00,,FEW,0.00,VWS V14.01,2013-12-24 02:24:00,
2013-12-23 19:29:00,14.3,6.6,30.40,NNE,15,2.0,5.0,71,0.00,,FEW,0.00,VWS V14.01,2013-12-24 02:29:00,
2013-12-23 19:34:00,14.3,6.6,30.40,NNE,15,2.0,3.0,71,0.00,,FEW,0.00,VWS V14.01,2013-12-24 02:34:00,
2013-12-23 19:39:00,14.2,6.5,30.40,NNE,15,2.0,3.0,71,0.00,,FEW,0.00,VWS V14.01,2013-12-24 02:39:00,
2013-12-23 19:44:00,14.3,6.9,30.40,NNE,15,2.0,3.0,72,0.00,,FEW,0.00,VWS V14.01,2013-12-24 02:44:00,
2013-12-23 19:49:00,14.3,6.9,30.40,NNE,15,2.0,3.0,72,0.00,,FEW,0.00,VWS V14.01,2013-12-24 02:49:00,
2013-12-23 19:54:00,14.2,6.8,30.40,NNE,15,2.0,3.0,72,0.00,,FEW,0.00,VWS V14.01,2013-12-24 02:54:00,
2013-12-23 19:59:00,14.1,6.8,30.40,NNE,15,2.0,3.0,72,0.00,,FEW,0.00,VWS V14.01,2013-12-24 02:59:00,
2013-12-23 20:04:00,13.9,6.9,30.40,NNE,15,2.0,3.0,73,0.00,,FEW,0.00,VWS V14.01,2013-12-24 03:04:00,
2013-12-23 20:09:00,13.7,6.7,30.40,NNE,15,2.0,3.0,73,0.00,,FEW,0.00,VWS V14.01,2013-12-24 03:09:00,
2013-12-23 20:14:00,13.6,6.6,30.40,NNE,15,2.0,3.0,73,0.00,,FEW,0.00,VWS V14.01,2013-12-24 03:14:00,
2013-12-23 20:19:00,13.6,6.9,30.40,NNE,15,2.0,3.0,74,0.00,,FEW,0.00,VWS V14.01,2013-12-24 03:19:00,
2013-12-23 20:24:00,13.5,6.8,30.40,NNE,15,2.0,4.0,74,0.00,,FEW,0.00,VWS V14.01,2013-12-24 03:24:00,
2013-12-23 20:29:00,13.5,6.5,30.40,NNE,15,2.0,4.0,73,0.00,,FEW,0.00,VWS V14.01,2013-12-24 03:29:00,
2013-12-23 20:34:00,13.2,6.2,30.40,NNE,15,2.0,4.0,73,0.00,,FEW,0.00,VWS V14.01,2013-12-24 03:34:00,
2013-12-23 20:39:00,13.0,6.3,30.40,NNE,15,2.0,4.0,74,0.00,,FEW,0.00,VWS V14.01,2013-12-24 03:39:00,
2013-12-23 20:44:00,12.8,6.1,30.40,NNE,15,2.0,4.0,74,0.00,,FEW,0.00,VWS V14.01,2013-12-24 03:44:00,
2013-12-23 20:49:00,12.7,6.0,30.40,NNE,15,2.0,4.0,74,0.00,,FEW,0.00,VWS V14.01,2013-12-24 03:49:00,
2013-12-23 20:54:00,12.5,5.8,30.40,NNE,15,2.0,4.0,74,0.00,,FEW,0.00,VWS V14.01,2013-12-24 03:54:00,
2013-12-23 20:59:00,12.3,5.9,30.40,NNE,16,2.0,5.0,75,0.00,,FEW,0.00,VWS V14.01,2013-12-24 03:59:00,
2013-12-23 21:04:00,12.0,5.6,30.40,NNE,16,2.0,3.0,75,0.00,,FEW,0.00,VWS V14.01,2013-12-24 04:04:00,
2013-12-23 21:09:00,11.8,5.7,30.40,NNE,16,2.0,3.0,76,0.00,,FEW,0.00,VWS V14.01,2013-12-24 04:09:00,
2013-12-23 21:14:00,11.7,5.6,30.40,NNE,20,2.0,5.0,76,0.00,,FEW,0.00,VWS V14.01,2013-12-24 04:14:00,
2013-12-23 21:19:00,11.5,5.4,30.40,NNE,20,2.0,5.0,76,0.00,,FEW,0.00,VWS V14.01,2013-12-24 04:19:00,
2013-12-23 21:24:00,11.3,5.5,30.40,NNE,21,2.0,5.0,77,0.00,,FEW,0.00,VWS V14.01,2013-12-24 04:24:00,
2013-12-23 21:29:00,11.1,5.3,30.40,NNE,21,2.0,5.0,77,0.00,,FEW,0.00,VWS V14.01,2013-12-24 04:29:00,
2013-12-23 21:34:00,11.0,5.2,30.40,NNE,22,2.0,4.0,77,0.00,,FEW,0.00,VWS V14.01,2013-12-24 04:34:00,
2013-12-23 21:39:00,10.9,5.1,30.41,NNE,22,2.0,4.0,77,0.00,,FEW,0.00,VWS V14.01,2013-12-24 04:39:00,
2013-12-23 21:44:00,10.8,5.0,30.40,NNE,24,3.0,4.0,77,0.00,,FEW,0.00,VWS V14.01,2013-12-24 04:44:00,
2013-12-23 21:49:00,10.9,5.1,30.41,NNE,24,2.0,4.0,77,0.00,,FEW,0.00,VWS V14.01,2013-12-24 04:49:00,
2013-12-23 21:54:00,11.0,5.2,30.41,NNE,26,2.0,5.0,77,0.00,,FEW,0.00,VWS V14.01,2013-12-24 04:54:00,
2013-12-23 21:59:00,11.1,5.3,30.40,NE,35,3.0,5.0,77,0.00,,FEW,0.00,VWS V14.01,2013-12-24 04:59:00,
2013-12-23 22:01:00,11.1,5.3,30.40,NE,35,3.0,4.0,77,0.00,,FEW,0.00,VWS V14.01,2013-12-24 05:01:00,
2013-12-23 22:06:00,11.1,5.3,30.40,NE,35,3.0,4.0,77,0.00,,FEW,0.00,VWS V14.01,2013-12-24 05:06:00,
2013-12-23 22:11:00,11.1,5.3,30.39,NE,35,3.0,4.0,77,0.00,,FEW,0.00,VWS V14.01,2013-12-24 05:11:00,
2013-12-23 22:16:00,11.1,5.3,30.39,NE,35,3.0,4.0,77,0.00,,FEW,0.00,VWS V14.01,2013-12-24 05:16:00,
2013-12-23 22:21:00,11.1,5.3,30.38,NE,35,3.0,4.0,77,0.00,,FEW,0.00,VWS V14.01,2013-12-24 05:21:00,
2013-12-23 22:26:00,11.1,5.3,30.37,NE,35,3.0,4.0,77,0.00,,FEW,0.00,VWS V14.01,2013-12-24 05:26:00,
2013-12-23 22:31:00,11.1,5.3,30.37,NE,35,3.0,4.0,77,0.00,,FEW,0.00,VWS V14.01,2013-12-24 05:31:00,
2013-12-23 22:36:00,11.1,5.3,30.37,NE,35,3.0,4.0,77,0.00,,FEW,0.00,VWS V14.01,2013-12-24 05:36:00,
2013-12-23 22:41:00,11.1,5.3,30.36,NE,35,3.0,4.0,77,0.00,,FEW,0.00,VWS V14.01,2013-12-24 05:41:00,
2013-12-23 22:46:00,11.1,5.3,30.36,NE,35,3.0,4.0,77,0.00,,FEW,0.00,VWS V14.01,2013-12-24 05:46:00,
2013-12-23 22:51:00,11.1,5.3,30.35,NE,35,3.0,4.0,77,0.00,,FEW,0.00,VWS V14.01,2013-12-24 05:51:00,
2013-12-23 22:56:00,11.1,5.3,30.35,NE,35,3.0,4.0,77,0.00,,FEW,0.00,VWS V14.01,2013-12-24 05:56:00,
2013-12-23 23:01:00,11.3,5.5,30.35,NE,40,2.0,4.0,77,0.00,,FEW,0.00,VWS V14.01,2013-12-24 06:01:00,
2013-12-23 23:06:00,11.2,5.4,30.34,NE,40,2.0,4.0,77,0.00,,FEW,0.00,VWS V14.01,2013-12-24 06:06:00,
2013-12-23 23:11:00,11.0,5.2,30.35,NE,40,2.0,4.0,77,0.00,,FEW,0.00,VWS V14.01,2013-12-24 06:11:00,
2013-12-23 23:16:00,10.9,5.4,30.35,NE,40,2.0,4.0,78,0.00,,FEW,0.00,VWS V14.01,2013-12-24 06:16:00,
2013-12-23 23:21:00,11.1,5.3,30.35,NE,40,0.0,1.0,77,0.00,,FEW,0.00,VWS V14.01,2013-12-24 06:21:00,
2013-12-23 23:26:00,11.1,5.3,30.35,NE,40,0.0,1.0,77,0.00,,FEW,0.00,VWS V14.01,2013-12-24 06:26:00,
2013-12-23 23:31:00,11.1,5.3,30.35,NE,40,0.0,0.0,77,0.00,,FEW,0.00,VWS V14.01,2013-12-24 06:31:00,
2013-12-23 23:36:00,11.0,5.2,30.35,NE,40,0.0,2.0,77,0.00,,FEW,0.00,VWS V14.01,2013-12-24 06:36:00,
2013-12-23 23:41:00,10.9,5.4,30.35,NE,40,1.0,2.0,78,0.00,,FEW,0.00,VWS V14.01,2013-12-24 06:41:00,
2013-12-23 23:46:00,10.8,5.3,30.35,NE,40,0.0,2.0,78,0.00,,FEW,0.00,VWS V14.01,2013-12-24 06:46:00,
2013-12-23 23:51:00,11.0,5.2,30.35,NE,40,0.0,2.0,77,0.00,,FEW,0.00,VWS V14.01,2013-12-24 06:51:00,
2013-12-23 23:56:00,10.8,5.0,30.35,NE,40,0.0,2.0,77,0.00,,FEW,0.00,VWS V14.01,2013-12-24 06:56:00,